Overview Statistics Trail Chart Weather Telemetry Raw packets
 

This is the latest recevied weather packets stored in our database for station/object EA4CZ-7. If no packets are shown the sender has not sent any weather packets the latest 10 day(s).

<< 1 2 3 4 5 6 >>
Time Temp. Humidity Pressure Rain* Wind** Luminosity Snow
1788206363 39.44° C 23% 1009.8 hPa - - - -
1788205763 40° C 23% 1009.6 hPa - - - -
1788205462 39.44° C 24% 1009.5 hPa - - - -
1788204262 37.78° C 27% 1009 hPa - - - -
1788203973 36.11° C 27% 1009.1 hPa - - - -
1788203661 33.89° C 30% 1008.8 hPa - - - -
1788203291 29.44° C 33% 1008.7 hPa - - - -
1788202391 29.44° C 32% 1008.5 hPa - - - -
1788201491 29.44° C 32% 1008.3 hPa - - - -
1788201191 29.44° C 32% 1008.2 hPa - - - -
1788200891 29.44° C 31% 1008.1 hPa - - - -
1788199991 30° C 31% 1008 hPa - - - -
1788199691 30° C 31% 1007.9 hPa - - - -
1788199391 30° C 30% 1007.9 hPa - - - -
1788198791 30° C 30% 1007.9 hPa - - - -
1788198491 30° C 30% 1007.9 hPa - - - -
1788197590 30° C 29% 1007.8 hPa - - - -
1788195790 31.11° C 23% 1007.7 hPa - - - -
1788195490 31.11° C 23% 1007.5 hPa - - - -
1788194890 31.11° C 23% 1007.6 hPa - - - -
1788193990 31.11° C 23% 1007.6 hPa - - - -
1788193690 31.67° C 23% 1007.7 hPa - - - -
1788193090 31.67° C 22% 1007.7 hPa - - - -
1788191890 31.67° C 22% 1007.8 hPa - - - -
1788190989 32.22° C 22% 1007.9 hPa - - - -

* Rain since midnight (hover to see other rain measurements)
** Current wind speed in m/s (hover to see current wind gust speed)